FIN42 RKSI-EFHK

Flight info

Callsign FIN42
Flight time N/A
Altitude 21700
Route NOPIK Y697 AGAVO/K0850S0660 A591 IKEKA W4 FZ/K0926S1040 W4 HCH W200 DOVIV W55 PAMRU W34 VYK B215 IDGIS/K0913S1100 B215 LEBOM W104 VEXEB W47 IDSOT W48 DKO W66 NUKTI B215 FKG/K0902S1160 A368 SARIN/K0902F380 N161 MASAV/K0898F400 N161 GASBI/N0484F400 N161 LEYLA N644 BADIR DCT ODILI N644 ROLIN DCT ZERGE DCT FALAZ DCT KARDE UN644 SIN UW90 INB UL746 ODERO DCT DINRO DCT KENIN/N0484F410 DCT ETUBO DCT VABER DCT ROLAV/N0482F400 DCT SOKVA/N0483F410 DCT KEMET Q11 INTOR
Aircraft A359/H-SDE2E3GHIJ3J4J5LM1ORWXY/LB1D1

Departure

Time 2026-05-01 15:15
Airport Incheon International Airport (RKSI)

Arrival

Time N/A
Airport Helsinki Vantaa Airport (EFHK)
Time Latitude Longitude Altitude Speed Heading
2026-05-01 15:09 37.46015 126.43098 39 ft 22 kts 324°
2026-05-01 15:09 37.46140 126.42988 38 ft 22 kts 324°
2026-05-01 15:09 37.46264 126.42878 38 ft 22 kts 324°
2026-05-01 15:09 37.46387 126.42768 39 ft 22 kts 324°
2026-05-01 15:10 37.46510 126.42657 39 ft 22 kts 324°
2026-05-01 15:10 37.46753 126.42439 39 ft 22 kts 325°
2026-05-01 15:10 37.46875 126.42331 38 ft 22 kts 325°
2026-05-01 15:11 37.46998 126.42222 38 ft 22 kts 324°
2026-05-01 15:11 37.47240 126.42007 39 ft 17 kts 324°
2026-05-01 15:11 37.47309 126.41946 39 ft 10 kts 324°
2026-05-01 15:12 37.47369 126.41893 39 ft 11 kts 324°
2026-05-01 15:12 37.47388 126.41784 39 ft 6 kts 232°
2026-05-01 15:12 37.47366 126.41747 39 ft 2 kts 234°
2026-05-01 15:13 37.47330 126.41684 39 ft 9 kts 234°
2026-05-01 15:14 37.47238 126.41606 39 ft 8 kts 169°
2026-05-01 15:14 37.47189 126.41638 40 ft 8 kts 146°
2026-05-01 15:14 37.46731 126.42044 38 ft 97 kts 145°
2026-05-01 15:15 37.45048 126.43547 337 ft 174 kts 146°
2026-05-01 15:15 37.42992 126.45080 1489 ft 183 kts 152°
2026-05-01 15:16 37.40566 126.46793 1958 ft 216 kts 159°
2026-05-01 15:16 37.37514 126.46308 2431 ft 245 kts 222°
2026-05-01 15:17 37.35128 126.43144 3561 ft 253 kts 229°
2026-05-01 15:18 37.31767 126.37943 5194 ft 260 kts 249°
2026-05-01 15:18 37.31264 126.35776 5804 ft 258 kts 261°
2026-05-01 15:19 37.30765 126.28994 7670 ft 263 kts 270°
2026-05-01 15:19 37.30608 126.24359 8950 ft 268 kts 270°
2026-05-01 15:19 37.30545 126.22781 9374 ft 269 kts 269°
2026-05-01 15:20 37.30318 126.18086 10448 ft 279 kts 269°
2026-05-01 15:20 37.30187 126.15577 10747 ft 293 kts 269°
2026-05-01 15:20 37.30047 126.12965 11046 ft 307 kts 269°
2026-05-01 15:21 37.29900 126.10231 11333 ft 319 kts 269°
2026-05-01 15:21 37.29745 126.07387 11612 ft 332 kts 269°
2026-05-01 15:21 37.29584 126.04439 11887 ft 344 kts 269°
2026-05-01 15:21 37.29416 126.01394 12147 ft 355 kts 269°
2026-05-01 15:22 37.29065 125.95106 13005 ft 365 kts 269°
2026-05-01 15:22 37.28887 125.91915 13504 ft 368 kts 269°
2026-05-01 15:22 37.28711 125.88698 14002 ft 371 kts 269°
2026-05-01 15:23 37.28532 125.85460 14460 ft 373 kts 268°
2026-05-01 15:23 37.28348 125.82201 14973 ft 375 kts 268°
2026-05-01 15:23 37.28162 125.78924 15446 ft 378 kts 268°
2026-05-01 15:23 37.27974 125.75617 15954 ft 379 kts 268°
2026-05-01 15:24 37.27784 125.72305 16465 ft 381 kts 268°
2026-05-01 15:24 37.27593 125.68973 16945 ft 384 kts 268°
2026-05-01 15:24 37.27401 125.65663 17411 ft 386 kts 268°
2026-05-01 15:24 37.27205 125.62291 17885 ft 388 kts 268°
2026-05-01 15:25 37.27009 125.58903 18358 ft 390 kts 268°
2026-05-01 15:25 37.26810 125.55491 18797 ft 393 kts 268°
2026-05-01 15:25 37.26609 125.52059 19234 ft 395 kts 268°
2026-05-01 15:25 37.26406 125.48602 19653 ft 398 kts 268°
2026-05-01 15:26 37.26198 125.45129 20059 ft 401 kts 268°
2026-05-01 15:26 37.25989 125.41630 20484 ft 403 kts 268°
2026-05-01 15:26 37.25779 125.38114 20933 ft 405 kts 268°
2026-05-01 15:26 37.25567 125.34580 21347 ft 407 kts 268°
2026-05-01 15:27 37.25351 125.31024 21742 ft 410 kts 268°
2026-05-01 15:27 37.25131 125.27442 22175 ft 411 kts 268°
2026-05-01 15:27 37.24912 125.23852 22571 ft 414 kts 268°
2026-05-01 15:28 37.24466 125.16603 23339 ft 419 kts 268°
2026-05-01 15:28 37.24242 125.12995 23725 ft 421 kts 268°
2026-05-01 15:28 37.24014 125.09325 24099 ft 424 kts 268°
2026-05-01 15:29 37.23551 125.01936 24936 ft 425 kts 268°
2026-05-01 15:29 37.23316 124.98229 25368 ft 426 kts 268°
2026-05-01 15:29 37.22841 124.90809 26183 ft 428 kts 268°
2026-05-01 15:30 37.22359 124.83348 26979 ft 429 kts 268°
2026-05-01 15:31 37.21387 124.68416 28319 ft 433 kts 269°
2026-05-01 15:31 37.20887 124.60895 28977 ft 434 kts 268°
2026-05-01 15:32 37.20380 124.53382 29854 ft 428 kts 269°
2026-05-01 15:32 37.19874 124.45992 30731 ft 423 kts 269°
2026-05-01 15:33 37.19125 124.35038 31815 ft 418 kts 269°
2026-05-01 15:34 37.18378 124.24207 32744 ft 414 kts 269°